Tillbaka till svenska Fidonet
English   Information   Debug  
FILM   0/18
FNEWS_PUBLISH   4983
FN_SYSOP   42232
FN_SYSOP_OLD1   71952
FTP_FIDO   0/2
FTSC_PUBLIC   0/13976
FUNNY   0/4886
GENEALOGY.EUR   0/71
GET_INFO   105
GOLDED   0/408
HAM   4846/16712
HOLYSMOKE   0/6791
HOT_SITES   0/1
HTMLEDIT   0/71
HUB203   466
HUB_100   264
HUB_400   39
HUMOR   0/29
IC   0/2851
INTERNET   0/424
INTERUSER   0/3
IP_CONNECT   719
JAMNNTPD   0/233
JAMTLAND   0/47
KATTY_KORNER   0/41
LAN   0/16
LINUX-USER   0/19
LINUXHELP   0/1155
LINUX   0/22382
LINUX_BBS   0/957
mail   18.68
mail_fore_ok   249
MENSA   0/341
MODERATOR   0/102
MONTE   0/992
MOSCOW_OKLAHOMA   0/1245
MUFFIN   0/783
MUSIC   0/321
N203_STAT   938
N203_SYSCHAT   313
NET203   321
NET204   69
NET_DEV   0/10
NORD.ADMIN   0/101
NORD.CHAT   0/2572
NORD.FIDONET   189
NORD.HARDWARE   0/28
NORD.KULTUR   0/114
NORD.PROG   0/32
NORD.SOFTWARE   0/88
NORD.TEKNIK   0/58
NORD   0/453
OCCULT_CHAT   0/93
OS2BBS   0/787
OS2DOSBBS   0/580
OS2HW   0/42
OS2INET   0/37
OS2LAN   0/134
OS2PROG   0/36
OS2REXX   0/113
OS2USER-L   207
OS2   0/4831
OSDEBATE   0/18996
PASCAL   0/490
PERL   0/457
PHP   0/45
POINTS   0/405
POLITICS   0/29554
POL_INC   0/14731
PSION   103
R20_ADMIN   1133
R20_AMATORRADIO   0/2
R20_BEST_OF_FIDONET   16
R20_CHAT   0/897
R20_DEPP   0/3
R20_DEV   400
R20_ECHO2   1889
R20_ECHOPRES   0/35
R20_ESTAT   0/719
R20_FIDONETPROG...
...RAM.MYPOINT
  0/2
R20_FIDONETPROGRAM   0/22
R20_FIDONET   0/248
R20_FILEFIND   0/24
R20_FILEFOUND   0/22
R20_HIFI   0/3
R20_INFO2   3781
R20_INTERNET   0/12940
R20_INTRESSE   0/60
R20_INTR_KOM   0/99
R20_KANDIDAT.CHAT   42
R20_KANDIDAT   28
R20_KOM_DEV   112
R20_KONTROLL   0/13360
R20_KORSET   0/18
R20_LOKALTRAFIK   0/24
R20_MODERATOR   0/1852
R20_NC   76
R20_NET200   245
R20_NETWORK.OTH...
...ERNETS
  0/13
R20_OPERATIVSYS...
...TEM.LINUX
  0/44
R20_PROGRAMVAROR   0/1
R20_REC2NEC   534
R20_SFOSM   0/341
R20_SF   0/108
R20_SPRAK.ENGLISH   0/1
R20_SQUISH   107
R20_TEST   2
R20_WORST_OF_FIDONET   20
RAR   0/9
RA_MULTI   106
RA_UTIL   0/162
REGCON.EUR   0/2069
REGCON   0/13
SCIENCE   0/1206
SF   0/239
SHAREWARE_SUPPORT   0/5146
SHAREWRE   0/14
SIMPSONS   0/169
STATS_OLD1   0/2539.065
STATS_OLD2   0/2530
STATS_OLD3   0/2395.095
STATS_OLD4   0/1692.25
SURVIVOR   0/495
SYSOPS_CORNER   0/3
SYSOP   0/84
TAGLINES   0/112
TEAMOS2   0/4530
TECH   0/2617
TEST.444   0/105
TRAPDOOR   0/19
TREK   0/755
TUB   0/290
UFO   0/40
UNIX   0/1316
USA_EURLINK   0/102
USR_MODEMS   0/1
VATICAN   0/2740
VIETNAM_VETS   0/14
VIRUS   0/378
VIRUS_INFO   0/201
VISUAL_BASIC   0/473
WHITEHOUSE   0/5187
WIN2000   0/101
WIN32   0/30
WIN95   0/4291
WIN95_OLD1   0/70272
WINDOWS   0/1517
WWB_SYSOP   0/419
WWB_TECH   0/810
ZCC-PUBLIC   0/1
ZEC   4

 
4DOS   0/134
ABORTION   0/7
ALASKA_CHAT   0/506
ALLFIX_FILE   0/1313
ALLFIX_FILE_OLD1   0/7997
ALT_DOS   0/152
AMATEUR_RADIO   0/1039
AMIGASALE   0/14
AMIGA   0/331
AMIGA_INT   0/1
AMIGA_PROG   0/20
AMIGA_SYSOP   0/26
ANIME   0/15
ARGUS   0/924
ASCII_ART   0/340
ASIAN_LINK   0/651
ASTRONOMY   0/417
AUDIO   0/92
AUTOMOBILE_RACING   0/105
BABYLON5   0/17862
BAG   135
BATPOWER   0/361
BBBS.ENGLISH   0/382
BBSLAW   0/109
BBS_ADS   0/5290
BBS_INTERNET   0/507
BIBLE   0/3563
BINKD   0/1119
BINKLEY   0/215
BLUEWAVE   0/2173
CABLE_MODEMS   0/25
CBM   0/46
CDRECORD   0/66
CDROM   0/20
CLASSIC_COMPUTER   0/378
COMICS   0/15
CONSPRCY   0/899
COOKING   42003
COOKING_OLD1   0/24719
COOKING_OLD2   0/40862
COOKING_OLD3   0/37489
COOKING_OLD4   0/35496
COOKING_OLD5   9370
C_ECHO   0/189
C_PLUSPLUS   0/31
DIRTY_DOZEN   0/201
DOORGAMES   0/2333
DOS_INTERNET   0/196
duplikat   6102
ECHOLIST   0/18295
EC_SUPPORT   0/318
ELECTRONICS   0/359
ELEKTRONIK.GER   1534
ENET.LINGUISTIC   0/13
ENET.POLITICS   0/4
ENET.SOFT   0/11701
ENET.SYSOP   34332
ENET.TALKS   0/32
ENGLISH_TUTOR   0/2000
EVOLUTION   0/1335
FDECHO   0/217
FDN_ANNOUNCE   0/7068
FIDONEWS   25122
FIDONEWS_OLD1   0/49742
FIDONEWS_OLD2   0/35949
FIDONEWS_OLD3   0/30874
FIDONEWS_OLD4   0/37224
FIDO_SYSOP   12973
FIDO_UTIL   0/180
FILEFIND   0/209
FILEGATE   0/212
Möte HAM, 16712 texter
 lista första sista föregående nästa
Text 4142, 848 rader
Skriven 2010-11-19 00:01:28 av Amsat List (1:323/120.0)
Ärende: [keps]  orb10322.amsa
=============================
[keps]  orb10322.amsa

Return-Path: <keps-bounces@amsat.org>
X-Rcpt: craig.healy@chowda.com
X-UIDL: 1290141466.19682

SB KEPS @ AMSAT  $ORB10322.O
Orbital Elements  10322.OSCAR

HR AMSAT ORBITAL ELEMENTS FOR OSCAR SATELLITES
FROM WA5QGD FORT WORTH,TX November 18, 2010
BID: ORB10322.O
TO ALL RADIO AMATEURS BT

Satellite: AO-07
Catalog number: 07530
Epoch time:      10321.66998435
Element set:    0931
Inclination:      101.3982 deg
RA of node:       331.5589 deg
Eccentricity:    0.0011965
Arg of perigee:   334.5287 deg
Mean anomaly:     025.5189 deg
Mean motion:   12.53580203 rev/day
Decay rate:       -2.7e-07 rev/day^2
Epoch rev:           64768
Checksum:              315

Satellite: FO-29
Catalog number: 24278
Epoch time:      10322.88634052
Element set:     442
Inclination:      098.5190 deg
RA of node:       130.6821 deg
Eccentricity:    0.0351408
Arg of perigee:   082.5344 deg
Mean anomaly:     281.5579 deg
Mean motion:   13.52954725 rev/day
Decay rate:        4.2e-07 rev/day^2
Epoch rev:           70402
Checksum:              298

Satellite: SO-33
Catalog number: 25509
Epoch time:      10321.46501881
Element set:    0839
Inclination:      031.4344 deg
RA of node:       001.7162 deg
Eccentricity:    0.0353891
Arg of perigee:   190.1852 deg
Mean anomaly:     169.1545 deg
Mean motion:   14.28339310 rev/day
Decay rate:        5.5e-07 rev/day^2
Epoch rev:           62998
Checksum:              298

Satellite: RS-22
Catalog number: 27939
Epoch time:      10322.64626930
Element set:     734
Inclination:      097.8681 deg
RA of node:       181.3854 deg
Eccentricity:    0.0012745
Arg of perigee:   294.8934 deg
Mean anomaly:     065.0936 deg
Mean motion:   14.63477879 rev/day
Decay rate:       1.69e-06 rev/day^2
Epoch rev:           38154
Checksum:              351

Satellite: VO-52
Catalog number: 28650
Epoch time:      10321.55442529
Element set:    0650
Inclination:      097.6731 deg
RA of node:       008.8432 deg
Eccentricity:    0.0027797
Arg of perigee:   132.8943 deg
Mean anomaly:     227.4629 deg
Mean motion:   14.81851221 rev/day
Decay rate:       1.23e-06 rev/day^2
Epoch rev:           29940
Checksum:              307

Satellite: SO-67
Catalog number: 35870
Epoch time:      10322.78816145
Element set:     299
Inclination:      097.3126 deg
RA of node:       007.6735 deg
Eccentricity:    0.0001520
Arg of perigee:   295.4552 deg
Mean anomaly:     197.7991 deg
Mean motion:   15.21189295 rev/day
Decay rate:      1.448e-05 rev/day^2
Epoch rev:            6495
Checksum:              336

Satellite: HO-68
Catalog number: 36122
Epoch time:      10322.62059575
Element set:     857
Inclination:      100.4495 deg
RA of node:       021.3458 deg
Eccentricity:    0.0007535
Arg of perigee:   348.0518 deg
Mean anomaly:     012.0414 deg
Mean motion:   13.16282735 rev/day
Decay rate:       -4.5e-07 rev/day^2
Epoch rev:            4453
Checksum:              277

/EX
SB KEPS @ AMSAT  $ORB10322.D
Orbital Elements  10322.MICROS

HR AMSAT ORBITAL ELEMENTS FOR THE MICROSATS
FROM WA5QGD FORT WORTH,TX November 18, 2010
BID: ORB10322.D
TO ALL RADIO AMATEURS BT

Satellite: UO-11
Catalog number: 14781
Epoch time:      10322.72838632
Element set:     395
Inclination:      098.0369 deg
RA of node:       014.7645 deg
Eccentricity:    0.0010230
Arg of perigee:   098.5808 deg
Mean anomaly:     261.6566 deg
Mean motion:   14.79860907 rev/day
Decay rate:       4.84e-06 rev/day^2
Epoch rev:           43466
Checksum:              325

Satellite: AO-16
Catalog number: 20439
Epoch time:      10322.62119090
Element set:      46
Inclination:      098.3549 deg
RA of node:       274.6145 deg
Eccentricity:    0.0011899
Arg of perigee:   069.5553 deg
Mean anomaly:     290.6910 deg
Mean motion:   14.31883761 rev/day
Decay rate:        6.2e-07 rev/day^2
Epoch rev:            8748
Checksum:              314

Satellite: LO-19
Catalog number: 20442
Epoch time:      10322.80382230
Element set:     956
Inclination:      098.3168 deg
RA of node:       279.9718 deg
Eccentricity:    0.0012743
Arg of perigee:   064.3747 deg
Mean anomaly:     295.8756 deg
Mean motion:   14.32112804 rev/day
Decay rate:        9.7e-07 rev/day^2
Epoch rev:            8768
Checksum:              326

Satellite: AO-27
Catalog number: 22825
Epoch time:      10322.72200575
Element set:     678
Inclination:      098.5050 deg
RA of node:       266.8100 deg
Eccentricity:    0.0008485
Arg of perigee:   169.3347 deg
Mean anomaly:     190.8021 deg
Mean motion:   14.29316868 rev/day
Decay rate:       1.20e-06 rev/day^2
Epoch rev:           89412
Checksum:              299

Satellite: IO-26
Catalog number: 22826
Epoch time:      10322.75970339
Element set:     416
Inclination:      098.4996 deg
RA of node:       267.3930 deg
Eccentricity:    0.0009064
Arg of perigee:   163.8839 deg
Mean anomaly:     196.2635 deg
Mean motion:   14.29574889 rev/day
Decay rate:        7.3e-07 rev/day^2
Epoch rev:           89424
Checksum:              359

Satellite: GO-32
Catalog number: 25397
Epoch time:      10322.84256888
Element set:     335
Inclination:      098.3178 deg
RA of node:       321.8055 deg
Eccentricity:    0.0001723
Arg of perigee:   138.4030 deg
Mean anomaly:     221.7289 deg
Mean motion:   14.23189174 rev/day
Decay rate:       -5.5e-07 rev/day^2
Epoch rev:           64204
Checksum:              300

Satellite: NO-44
Catalog number: 26931
Epoch time:      10321.69637574
Element set:     609
Inclination:      067.0506 deg
RA of node:       168.4596 deg
Eccentricity:    0.0005783
Arg of perigee:   274.0379 deg
Mean anomaly:     086.0050 deg
Mean motion:   14.29619758 rev/day
Decay rate:      -2.51e-06 rev/day^2
Epoch rev:           47669
Checksum:              338

